Wind_Speed
5 5 5 4 4 6 6 7 6 5 5 6 7 7 5 6 6 7 7 5 2 5 7 6 5 7 5 2 6 9 6 4 6 7 9 8 6 6 5 6 8 4
4 4 6 6 6 6 6 7 7 5 5 6 7 7 7 7 7 7 8 7 5 4 7 7 6 7 6 2 4 8 6 5 4 5 7 6 5 6 5 6 8 6
4 3 4 5 7 7 6 7 9 8 8 8 7 7 7 8 7 8 8 8 7 6 6 8 7 7 7 7 6 6 6 6 5 5 6 6 6 6 5 6 8 6
5 5 5 4 5 6 7 8 8 8 9 9 9 8 7 9 9 8 8 8 8 8 8 8 8 8 9 9 10 9 6 7 7 7 7 7 7 5 6 7 6 5
4 5 5 5 5 6 8 8 7 7 8 8 8 8 7 8 10 9 9 9 8 9 10 10 11 11 10 9 11 12 9 8 7 8 9 8 7 7 8 8 5 5
5 5 6 6 6 7 8 8 8 8 8 7 8 8 7 7 9 10 10 10 10 10 11 12 13 13 12 10 11 13 13 10 8 8 10 11 10 9 9 8 8 9
6 6 7 7 7 8 9 9 10 10 9 9 9 9 9 9 9 10 11 11 11 11 11 12 13 14 14 12 11 12 13 13 11 9 9 11 12 10 9 10 11 12
7 7 7 8 8 9 10 10 10 10 10 11 10 10 10 11 10 10 11 12 12 12 12 13 13 14 15 15 13 12 13 15 16 13 10 11 11 12 12 12 12 15
9 9 8 9 9 10 10 10 10 10 10 10 11 11 10 11 12 11 11 13 13 13 13 14 14 14 16 17 16 14 14 16 18 17 14 13 12 14 15 13 14 16
9 9 9 10 11 11 11 11 11 11 11 10 10 11 11 11 12 13 12 12 13 13 13 13 14 15 16 18 18 17 16 16 18 19 19 17 14 14 15 14 13 14
9 9 9 9 11 11 11 12 12 12 12 11 11 11 12 13 13 14 14 14 14 14 13 13 14 15 16 17 19 19 18 17 17 18 19 19 17 17 18 17 15 16
8 9 10 10 11 11 12 12 12 12 13 12 12 12 13 14 14 15 15 16 15 14 14 15 15 15 15 16 18 19 20 20 18 17 18 20 20 21 21 21 20 20
6 8 9 10 11 12 12 13 13 13 13 14 14 14 15 15 16 16 16 16 17 17 17 17 16 16 16 17 18 19 20 21 20 19 20 21 23 22 22 21 22 22
7 8 9 10 12 13 13 14 14 15 15 15 16 16 17 17 17 18 18 18 18 18 18 19 20 19 19 19 19 19 20 21 21 21 21 22 23 23 22 21 21 22
9 10 11 11 13 14 15 16 16 17 18 18 18 18 18 19 21 22 21 20 21 21 21 21 22 24 23 22 22 21 21 21 22 22 22 22 23 23 22 22 22 23
10 10 11 12 13 13 14 16 16 17 17 18 19 19 19 20 23 24 23 23 24 26 25 23 23 25 26 25 25 25 24 23 23 23 23 23 23 23 23 24 24 24
10 9 10 12 13 12 12 14 15 16 17 18 19 20 21 21 22 23 24 25 27 28 27 26 26 27 27 27 26 27 28 27 25 24 24 24 24 24 25 25 25 25
9 8 9 11 12 11 12 14 15 16 17 18 18 20 21 22 22 23 24 25 27 28 29 28 28 29 29 29 28 28 28 29 28 27 27 27 26 26 27 27 26 26
7 8 8 9 9 10 12 15 16 17 19 20 21 21 21 22 23 23 24 25 26 28 29 30 29 28 29 29 30 30 29 30 31 31 31 30 27 26 27 26 26 26
6 7 7 9 12 15 16 18 19 20 22 23 23 22 22 22 21 22 24 26 26 26 27 27 26 26 26 27 30 31 31 34 34 32 32 32 30 30 29 29 30 29
5 8 11 15 17 18 19 20 21 22 21 20 20 20 19 19 19 20 22 23 23 23 22 22 22 22 22 23 25 26 27 32 35 33 32 33 33 33 32 33 34 33
9 12 15 18 18 17 19 20 20 20 18 18 19 19 18 18 19 19 19 20 19 19 19 19 19 19 19 20 20 20 21 25 29 30 31 32 32 32 31 31 33 33
12 14 17 19 16 15 17 19 19 18 17 18 20 19 17 18 19 19 19 18 17 17 18 18 18 18 17 17 17 17 18 21 24 26 27 28 27 27 28 29 30 32
12 13 17 18 15 13 16 17 16 17 17 19 20 19 17 18 19 19 20 19 19 19 19 18 17 17 16 16 15 15 17 19 21 22 23 23 22 22 23 24 25 26
11 12 16 17 14 13 16 16 15 16 16 17 18 17 17 18 19 19 19 19 18 19 19 18 16 15 16 16 15 15 17 19 19 19 19 19 20 20 21 21 22 23
11 11 15 15 12 13 16 15 14 14 15 16 16 16 16 17 18 18 18 18 17 17 19 18 15 15 16 16 15 16 18 19 18 18 18 18 18 19 19 19 19 19
Wind_Direction
335 339 335 335 323 318 319 318 317 311 307 306 306 309 303 293 287 281 291 301 269 252 267 281 285 295 322 352 303 315 325 330 347 348 345 358 2 355 351 344 352 359
327 327 328 339 342 336 333 327 325 323 308 298 299 304 304 302 299 292 294 298 291 260 260 270 266 280 301 267 270 302 314 335 350 322 323 336 321 328 343 331 336 342
314 310 315 330 337 336 325 317 325 334 333 330 324 313 311 313 307 296 291 293 290 276 261 265 256 254 275 278 275 281 290 312 317 293 296 302 299 316 329 315 321 330
323 325 330 334 327 316 311 317 326 330 330 331 329 324 319 313 312 306 297 295 289 281 279 279 266 249 248 261 277 280 274 279 285 284 288 300 312 312 298 299 315 324
301 305 313 323 316 297 302 316 320 313 310 312 311 313 314 306 309 312 306 303 299 291 288 285 282 274 257 244 256 272 276 268 270 278 282 291 299 294 294 298 301 299
289 292 292 300 305 299 301 307 305 300 298 297 295 297 301 300 300 306 306 304 303 301 295 288 289 288 278 257 241 255 271 272 266 267 267 274 283 289 292 286 280 285
291 294 292 298 306 305 304 303 303 306 305 301 299 295 298 300 298 298 297 294 292 291 287 283 286 285 283 276 250 245 261 267 267 267 259 260 269 274 274 272 274 280
293 293 293 295 294 293 300 302 302 303 302 301 301 302 304 306 304 297 290 289 287 284 279 277 280 279 277 277 267 254 255 256 260 267 264 257 255 258 265 267 267 271
289 291 291 292 292 294 300 302 301 300 297 294 295 297 299 297 294 290 287 288 288 286 281 276 275 274 272 275 274 266 258 254 257 265 270 265 254 253 260 263 263 264
285 287 288 289 293 297 299 300 302 302 301 296 291 291 291 289 290 290 286 285 287 287 283 277 275 274 272 273 274 270 264 256 254 261 269 271 264 256 258 263 261 258
289 293 297 299 298 299 302 303 301 303 306 305 299 295 295 293 291 290 287 285 286 285 284 282 280 277 272 272 275 276 276 266 252 249 257 263 264 260 260 261 255 250
295 303 305 307 304 302 304 304 305 305 306 306 302 297 295 293 291 291 291 289 287 283 282 282 280 277 272 269 269 271 275 275 265 253 250 254 255 255 256 256 251 251
295 299 300 303 305 306 307 307 307 305 302 300 298 294 291 291 291 290 289 288 286 283 282 280 277 274 270 268 267 265 266 268 268 264 258 258 260 259 258 255 251 251
312 315 316 316 316 314 312 310 308 307 305 302 299 297 295 292 290 292 292 287 283 281 280 279 277 275 271 266 263 261 262 263 264 263 259 258 262 265 264 262 257 255
318 321 317 317 318 316 312 311 311 309 308 306 303 301 298 292 291 297 298 291 285 285 285 281 278 277 275 272 267 262 261 260 260 262 261 258 260 262 264 265 263 261
309 309 310 313 316 315 314 314 314 312 312 312 307 302 299 294 294 297 295 287 285 290 292 285 276 274 273 273 273 270 267 263 259 259 260 261 261 261 261 263 262 261
309 312 321 323 321 320 320 319 316 315 316 314 309 306 304 299 296 297 294 290 289 292 293 286 276 273 273 274 276 277 276 272 266 260 259 259 261 264 265 267 267 265
322 328 330 329 329 328 323 320 320 320 318 314 310 310 309 304 299 296 295 296 296 295 294 287 277 272 276 279 278 276 276 275 270 266 265 262 259 261 265 269 270 271
343 344 336 329 329 323 317 316 316 313 310 307 305 304 305 305 304 301 297 297 299 300 297 291 284 281 284 284 279 273 273 274 272 271 269 265 262 261 261 263 267 270
355 338 320 313 315 316 318 319 316 315 313 312 311 310 308 306 306 306 304 303 304 304 300 296 296 297 295 290 283 278 275 275 277 279 276 270 268 267 266 265 266 267
327 310 310 319 326 329 329 328 328 330 332 331 330 330 325 318 314 314 315 316 316 314 307 303 305 306 303 297 291 287 281 278 280 285 284 280 277 276 274 271 271 271
314 319 327 335 342 340 336 338 341 342 343 341 341 345 346 342 336 331 328 326 326 325 321 314 310 310 309 306 298 290 287 287 289 291 291 292 292 290 285 281 280 281
332 337 340 346 352 346 341 346 348 347 347 343 345 354 354 346 342 341 340 342 343 342 337 327 319 317 317 316 311 302 297 300 302 303 303 304 304 301 296 291 288 288
352 345 341 347 353 345 343 348 348 346 346 342 344 350 346 340 341 344 346 351 353 348 343 337 331 328 331 337 337 327 317 316 316 316 316 316 314 312 309 304 298 294
356 343 337 346 353 342 340 347 349 346 340 337 341 344 338 337 340 340 340 343 344 342 343 343 340 338 340 346 348 343 338 337 336 332 331 329 326 322 319 314 309 307
346 337 336 351 355 337 338 350 353 343 337 339 345 346 341 339 340 341 344 345 344 342 339 338 342 347 345 344 346 348 348 347 345 342 341 338 333 329 328 326 322 318
Height
1518 1518 1518 1518 1518 1518 1517 1517 1517 1517 1516 1516 1516 1515 1515 1515 1515 1514 1513 1513 1513 1513 1513 1513 1512 1511 1511 1511 1510 1510 1509 1509 1508 1508 1507 1507 1506 1506 1506 1505 1504 1504
1518 1518 1518 1518 1517 1517 1517 1516 1516 1516 1516 1516 1515 1515 1514 1514 1514 1513 1513 1512 1512 1512 1512 1512 1512 1511 1511 1511 1511 1510 1510 1509 1509 1509 1508 1508 1507 1506 1506 1505 1505 1504
1518 1518 1518 1518 1517 1517 1517 1516 1516 1515 1515 1515 1515 1514 1514 1514 1513 1513 1512 1512 1511 1511 1511 1511 1511 1511 1510 1510 1510 1510 1509 1509 1509 1509 1509 1508 1507 1507 1506 1506 1505 1504
1518 1517 1517 1518 1518 1517 1517 1516 1516 1515 1515 1514 1514 1514 1514 1513 1513 1512 1512 1511 1511 1510 1510 1510 1510 1510 1510 1509 1509 1509 1509 1509 1509 1508 1508 1508 1507 1506 1506 1506 1505 1504
1518 1518 1517 1517 1518 1517 1517 1516 1516 1516 1515 1515 1514 1514 1514 1513 1513 1512 1511 1511 1510 1510 1510 1509 1509 1508 1508 1508 1508 1507 1507 1507 1507 1507 1507 1507 1506 1506 1506 1505 1505 1504
1517 1517 1517 1517 1517 1517 1516 1516 1516 1515 1515 1515 1514 1514 1514 1513 1513 1512 1511 1510 1510 1509 1509 1508 1508 1507 1507 1507 1507 1506 1506 1506 1506 1506 1506 1505 1505 1505 1505 1504 1504 1504
1517 1517 1517 1517 1516 1516 1516 1515 1515 1514 1514 1514 1514 1513 1513 1512 1512 1511 1511 1510 1510 1509 1509 1508 1507 1506 1505 1505 1505 1505 1504 1504 1504 1504 1504 1504 1504 1504 1503 1503 1503 1502
1516 1516 1516 1516 1516 1516 1515 1515 1515 1514 1514 1513 1513 1512 1512 1512 1511 1511 1510 1510 1509 1508 1508 1507 1507 1506 1504 1504 1503 1503 1503 1503 1502 1502 1502 1502 1502 1502 1502 1502 1501 1500
1516 1516 1516 1516 1515 1515 1515 1514 1514 1514 1513 1513 1512 1512 1512 1511 1511 1510 1510 1509 1508 1507 1507 1506 1506 1505 1504 1502 1502 1502 1501 1501 1501 1500 1500 1500 1500 1500 1500 1499 1499 1498
1516 1515 1515 1515 1515 1515 1515 1514 1514 1513 1513 1512 1512 1512 1511 1511 1510 1509 1509 1508 1507 1506 1506 1505 1504 1504 1503 1501 1500 1500 1500 1499 1499 1498 1498 1498 1497 1497 1497 1497 1497 1496
1515 1515 1515 1515 1514 1514 1514 1513 1513 1512 1512 1511 1511 1511 1510 1510 1509 1508 1508 1507 1506 1505 1505 1504 1503 1503 1502 1501 1499 1498 1497 1497 1497 1497 1496 1495 1495 1495 1495 1495 1495 1494
1515 1514 1514 1514 1514 1513 1513 1512 1512 1511 1511 1510 1510 1509 1509 1508 1507 1507 1506 1505 1504 1504 1503 1502 1502 1501 1500 1500 1499 1497 1495 1495 1494 1494 1494 1494 1493 1493 1493 1493 1492 1492
1514 1514 1514 1513 1513 1512 1512 1512 1511 1511 1510 1509 1509 1508 1508 1507 1506 1505 1504 1503 1503 1502 1501 1500 1499 1499 1498 1497 1497 1496 1495 1493 1492 1492 1492 1491 1491 1490 1490 1490 1490 1490
1513 1513 1513 1512 1512 1511 1511 1510 1510 1509 1509 1508 1508 1507 1506 1505 1504 1504 1503 1502 1501 1500 1499 1498 1497 1496 1495 1494 1494 1494 1493 1492 1491 1490 1490 1489 1488 1488 1487 1487 1487 1487
1512 1512 1512 1512 1511 1510 1510 1509 1508 1508 1507 1507 1506 1505 1504 1503 1502 1501 1500 1499 1498 1498 1497 1496 1495 1493 1492 1491 1491 1491 1490 1489 1488 1488 1487 1487 1486 1486 1485 1485 1484 1484
1512 1512 1511 1511 1510 1509 1509 1508 1508 1507 1506 1505 1504 1503 1502 1501 1500 1499 1498 1497 1496 1495 1494 1493 1492 1491 1489 1489 1488 1487 1487 1487 1486 1485 1484 1484 1484 1483 1483 1482 1482 1482
1511 1510 1510 1510 1509 1508 1508 1507 1506 1506 1505 1504 1503 1501 1500 1499 1498 1497 1495 1494 1493 1492 1491 1490 1489 1488 1488 1487 1486 1485 1484 1483 1482 1482 1481 1481 1481 1480 1480 1479 1479 1479
1509 1509 1509 1509 1507 1507 1506 1505 1505 1504 1503 1502 1500 1499 1498 1496 1496 1494 1493 1492 1491 1489 1488 1487 1486 1486 1486 1485 1484 1483 1481 1479 1479 1478 1477 1477 1478 1478 1477 1477 1476 1476
1509 1508 1508 1507 1506 1505 1504 1503 1503 1502 1500 1499 1498 1496 1495 1494 1493 1492 1490 1489 1488 1487 1486 1483 1482 1483 1483 1482 1480 1479 1478 1476 1476 1475 1474 1473 1474 1475 1475 1474 1474 1474
1508 1507 1506 1505 1504 1504 1503 1502 1501 1499 1498 1496 1495 1493 1492 1491 1490 1489 1487 1486 1485 1484 1482 1480 1479 1479 1479 1478 1477 1476 1475 1473 1472 1471 1471 1471 1471 1472 1472 1471 1470 1470
1506 1505 1505 1504 1503 1502 1501 1499 1498 1496 1495 1494 1492 1491 1490 1488 1487 1486 1484 1483 1482 1480 1479 1477 1477 1477 1476 1475 1473 1472 1471 1470 1468 1468 1468 1468 1469 1469 1469 1467 1465 1465
1505 1504 1504 1502 1501 1500 1499 1497 1496 1494 1493 1492 1490 1489 1488 1487 1485 1484 1483 1481 1480 1478 1476 1475 1475 1475 1474 1472 1471 1469 1468 1467 1466 1466 1465 1464 1465 1465 1465 1463 1460 1460
1504 1503 1502 1501 1500 1499 1497 1496 1495 1493 1492 1491 1489 1488 1487 1486 1485 1483 1482 1480 1478 1477 1475 1473 1473 1472 1471 1470 1469 1468 1467 1465 1465 1464 1463 1462 1461 1461 1461 1459 1458 1457
1504 1502 1501 1500 1500 1498 1497 1495 1494 1493 1492 1491 1489 1488 1487 1485 1484 1482 1481 1479 1478 1476 1475 1473 1472 1471 1470 1469 1467 1466 1466 1465 1464 1462 1461 1460 1459 1459 1458 1456 1455 1454
1503 1502 1500 1499 1499 1497 1496 1495 1493 1493 1492 1490 1489 1488 1486 1485 1483 1482 1480 1479 1478 1476 1474 1473 1472 1470 1469 1468 1467 1466 1466 1464 1463 1461 1460 1459 1457 1456 1455 1454 1453 1452
1502 1501 1499 1498 1498 1496 1495 1494 1493 1492 1491 1489 1488 1487 1486 1484 1483 1481 1479 1478 1477 1476 1474 1472 1471 1470 1469 1468 1467 1466 1465 1464 1462 1461 1459 1458 1456 1455 1454 1452 1451 1450